GFSNIL_prec_precacc_195.txt.gz
Total_Precipitation_Accumulation
0.68 0.68 0.79 0.89 0.95 1.03 1.15 1.26 1.67 2.06 2.14 2.12 2.31 2.37 2.36 2.41 2.07 1.68 1.46 1.35 1.13 0.81
0.65 0.68 0.75 0.81 0.83 0.84 0.93 1.04 1.19 1.18 1.31 1.29 1.30 1.27 1.35 1.51 1.59 1.49 1.19 1.20 1.19 0.86
0.58 0.57 0.51 0.48 0.50 0.56 0.59 0.60 0.59 0.58 0.54 0.67 0.79 0.77 0.74 0.86 1.24 1.47 1.18 1.09 1.41 1.30
0.80 1.13 1.15 0.88 0.87 0.83 0.73 0.68 0.62 0.56 0.56 0.42 0.41 0.49 0.44 0.47 0.79 1.28 1.51 1.36 1.51 1.67
1.75 1.48 1.59 1.50 1.40 1.34 0.96 0.82 0.76 0.68 0.66 0.59 0.59 0.54 0.44 0.38 0.61 0.94 1.41 1.49 1.44 1.52
1.81 2.12 1.66 1.58 1.66 1.42 1.13 0.94 0.90 0.81 0.78 0.63 0.62 0.56 0.50 0.45 0.51 0.86 1.16 1.38 1.64 1.59
1.33 1.67 1.90 1.41 1.31 1.29 1.28 1.13 0.95 0.85 0.93 1.10 1.02 0.79 0.71 0.68 0.87 0.89 1.05 1.32 1.57 1.74
1.37 1.47 1.87 1.57 1.51 1.43 1.44 1.76 1.47 1.30 1.03 0.96 0.99 1.06 1.14 1.11 0.91 0.93 1.03 1.05 1.15 1.41
1.31 1.38 1.38 1.75 1.74 1.86 1.45 1.62 1.83 1.68 1.46 1.38 1.20 1.68 1.52 1.29 1.14 1.04 0.88 0.80 0.64 0.86
1.81 1.84 1.65 1.45 1.61 1.87 2.10 1.91 1.77 2.14 2.12 1.94 1.99 2.14 2.09 1.92 1.50 1.44 1.48 1.35 1.20 0.92
2.00 1.99 1.92 2.00 1.74 1.68 2.07 2.15 2.21 1.96 2.33 2.18 2.08 2.67 2.35 2.03 1.77 1.87 1.93 2.16 1.96 1.73
2.32 2.08 1.73 1.82 2.29 2.02 1.87 1.93 1.93 1.98 1.65 1.79 2.37 2.54 2.36 2.38 1.69 1.70 1.71 1.85 2.07 2.11
2.10 2.33 2.69 2.38 2.27 2.61 2.31 2.07 1.86 1.70 1.73 1.90 1.82 2.34 2.09 2.14 2.32 2.36 2.52 2.06 2.09 2.81
1.55 1.76 2.12 2.38 2.48 2.30 2.34 2.11 1.98 1.92 1.89 1.85 2.00 2.22 2.25 1.87 1.68 2.16 2.51 2.65 2.59 2.86

GFSNIL_prec_precacc_201.txt.gz
Total_Precipitation_Accumulation
0.68 0.68 0.79 0.89 0.96 1.05 1.15 1.26 1.67 2.08 2.16 2.15 2.33 2.43 2.43 2.48 2.13 1.74 1.57 1.48 1.21 0.85
0.65 0.68 0.75 0.81 0.83 0.84 0.93 1.04 1.20 1.19 1.32 1.30 1.30 1.28 1.35 1.51 1.60 1.49 1.19 1.21 1.19 0.86
0.58 0.57 0.52 0.48 0.50 0.56 0.59 0.60 0.59 0.58 0.55 0.67 0.79 0.77 0.74 0.86 1.24 1.48 1.18 1.09 1.41 1.31
0.80 1.13 1.15 0.88 0.87 0.83 0.73 0.68 0.62 0.57 0.56 0.43 0.42 0.49 0.44 0.47 0.80 1.28 1.52 1.38 1.53 1.69
1.75 1.48 1.59 1.50 1.40 1.34 0.96 0.82 0.76 0.68 0.66 0.60 0.60 0.55 0.45 0.39 0.62 0.95 1.42 1.51 1.46 1.54
1.81 2.12 1.66 1.58 1.66 1.42 1.13 0.94 0.90 0.82 0.79 0.64 0.63 0.57 0.51 0.46 0.52 0.87 1.17 1.39 1.65 1.60
1.33 1.67 1.90 1.41 1.31 1.29 1.28 1.13 0.95 0.85 0.94 1.10 1.02 0.80 0.71 0.68 0.88 0.90 1.06 1.32 1.57 1.74
1.37 1.47 1.87 1.57 1.51 1.43 1.44 1.76 1.47 1.30 1.03 0.96 0.99 1.06 1.14 1.11 0.91 0.93 1.03 1.05 1.15 1.41
1.31 1.38 1.38 1.75 1.74 1.86 1.45 1.62 1.83 1.69 1.46 1.39 1.21 1.70 1.54 1.30 1.14 1.04 0.88 0.80 0.64 0.86
1.81 1.84 1.65 1.45 1.63 1.88 2.11 1.92 1.78 2.14 2.13 1.96 2.01 2.17 2.11 1.95 1.50 1.44 1.48 1.35 1.20 0.92
2.00 1.99 1.92 2.00 1.74 1.68 2.07 2.15 2.21 1.96 2.33 2.18 2.09 2.70 2.38 2.06 1.78 1.87 1.93 2.16 1.97 1.75
2.32 2.08 1.73 1.82 2.29 2.02 1.88 1.94 1.94 2.00 1.66 1.80 2.39 2.59 2.44 2.49 1.76 1.76 1.78 1.93 2.15 2.19
2.10 2.33 2.69 2.38 2.27 2.61 2.31 2.08 1.86 1.74 1.81 1.99 1.92 2.51 2.34 2.44 2.58 2.60 2.72 2.26 2.29 2.91
1.55 1.76 2.12 2.38 2.48 2.30 2.34 2.11 1.99 1.95 1.95 1.94 2.14 2.38 2.49 2.13 1.92 2.38 2.76 2.92 2.82 3.02

GFSNIL_prec_precacc_204.txt.gz
Total_Precipitation_Accumulation
0.68 0.68 0.79 0.89 0.96 1.05 1.16 1.26 1.67 2.08 2.16 2.15 2.33 2.43 2.43 2.48 2.13 1.75 1.58 1.48 1.21 0.86
0.65 0.68 0.75 0.81 0.83 0.84 0.93 1.04 1.20 1.19 1.32 1.30 1.30 1.28 1.35 1.51 1.60 1.49 1.20 1.21 1.19 0.86
0.58 0.57 0.52 0.48 0.50 0.56 0.59 0.60 0.59 0.58 0.55 0.67 0.79 0.77 0.74 0.86 1.24 1.48 1.18 1.09 1.42 1.31
0.80 1.13 1.15 0.88 0.87 0.83 0.73 0.68 0.62 0.57 0.56 0.43 0.42 0.49 0.44 0.47 0.80 1.28 1.52 1.38 1.53 1.69
1.75 1.48 1.59 1.50 1.40 1.34 0.96 0.82 0.76 0.68 0.66 0.60 0.60 0.55 0.45 0.39 0.62 0.95 1.42 1.51 1.46 1.54
1.81 2.12 1.66 1.58 1.66 1.42 1.13 0.94 0.90 0.82 0.79 0.64 0.63 0.57 0.51 0.46 0.52 0.87 1.17 1.39 1.65 1.60
1.33 1.67 1.90 1.41 1.31 1.29 1.28 1.13 0.95 0.85 0.94 1.10 1.02 0.80 0.71 0.68 0.88 0.90 1.06 1.32 1.57 1.74
1.37 1.47 1.87 1.57 1.51 1.43 1.44 1.76 1.47 1.30 1.03 0.96 0.99 1.06 1.14 1.11 0.91 0.93 1.03 1.05 1.15 1.41
1.31 1.38 1.38 1.75 1.74 1.86 1.45 1.62 1.83 1.69 1.46 1.39 1.21 1.70 1.54 1.30 1.14 1.04 0.88 0.80 0.64 0.87
1.81 1.84 1.65 1.45 1.63 1.88 2.11 1.92 1.78 2.14 2.13 1.96 2.01 2.17 2.12 1.95 1.51 1.44 1.48 1.35 1.20 0.93
2.00 1.99 1.92 2.00 1.74 1.68 2.07 2.15 2.21 1.96 2.33 2.18 2.09 2.70 2.38 2.07 1.79 1.87 1.94 2.19 2.02 1.81
2.32 2.08 1.73 1.82 2.29 2.02 1.88 1.94 1.94 2.00 1.66 1.80 2.39 2.59 2.44 2.49 1.76 1.78 1.81 1.99 2.24 2.32
2.10 2.33 2.69 2.38 2.27 2.62 2.31 2.08 1.86 1.74 1.81 2.00 1.93 2.51 2.34 2.44 2.59 2.62 2.75 2.30 2.34 3.08
1.55 1.76 2.12 2.38 2.48 2.30 2.34 2.11 1.99 1.95 1.95 1.94 2.14 2.39 2.49 2.13 1.92 2.38 2.76 2.93 2.86 3.10

GFSNIL_prec_precacc_207.txt.gz
Total_Precipitation_Accumulation
0.68 0.68 0.79 0.89 0.96 1.06 1.17 1.28 1.70 2.10 2.19 2.17 2.34 2.43 2.43 2.48 2.13 1.75 1.58 1.48 1.21 0.86
0.65 0.68 0.75 0.81 0.83 0.85 0.94 1.05 1.21 1.19 1.32 1.30 1.30 1.28 1.35 1.51 1.60 1.49 1.20 1.21 1.20 0.87
0.58 0.57 0.52 0.48 0.51 0.56 0.59 0.60 0.59 0.58 0.55 0.67 0.79 0.77 0.74 0.86 1.24 1.48 1.18 1.09 1.42 1.31
0.80 1.13 1.15 0.88 0.87 0.83 0.73 0.68 0.62 0.57 0.56 0.43 0.42 0.49 0.44 0.47 0.80 1.28 1.52 1.38 1.53 1.69
1.75 1.48 1.59 1.50 1.40 1.34 0.96 0.82 0.76 0.68 0.66 0.60 0.60 0.55 0.45 0.39 0.62 0.95 1.42 1.51 1.46 1.54
1.81 2.12 1.66 1.58 1.66 1.42 1.13 0.94 0.90 0.82 0.79 0.64 0.63 0.57 0.51 0.46 0.52 0.87 1.17 1.39 1.65 1.60
1.33 1.67 1.90 1.41 1.31 1.29 1.28 1.13 0.95 0.85 0.94 1.10 1.02 0.80 0.71 0.68 0.88 0.90 1.06 1.32 1.57 1.74
1.37 1.47 1.87 1.57 1.51 1.43 1.44 1.76 1.47 1.30 1.03 0.96 0.99 1.06 1.14 1.11 0.91 0.93 1.03 1.05 1.15 1.41
1.31 1.38 1.38 1.75 1.74 1.86 1.45 1.62 1.83 1.69 1.46 1.39 1.21 1.70 1.54 1.30 1.14 1.04 0.88 0.80 0.64 0.87
1.81 1.84 1.65 1.45 1.63 1.88 2.11 1.92 1.78 2.14 2.13 1.96 2.01 2.17 2.12 1.95 1.51 1.44 1.48 1.35 1.20 0.93
2.00 1.99 1.92 2.00 1.74 1.68 2.07 2.15 2.21 1.96 2.33 2.18 2.09 2.70 2.38 2.07 1.79 1.87 1.94 2.19 2.03 1.82
2.33 2.08 1.73 1.82 2.29 2.02 1.88 1.94 1.94 2.00 1.66 1.80 2.39 2.59 2.44 2.49 1.76 1.78 1.82 1.99 2.24 2.33
2.10 2.33 2.69 2.38 2.27 2.62 2.31 2.08 1.86 1.74 1.81 2.00 1.93 2.52 2.35 2.44 2.59 2.63 2.76 2.30 2.35 3.08
1.56 1.76 2.12 2.38 2.48 2.30 2.34 2.11 1.99 1.95 1.95 1.94 2.14 2.40 2.50 2.14 1.92 2.39 2.77 2.94 2.86 3.10

GFSNIL_prec_precacc_210.txt.gz
Total_Precipitation_Accumulation
0.69 0.69 0.79 0.90 0.97 1.07 1.18 1.29 1.71 2.12 2.22 2.23 2.46 2.52 2.49 2.52 2.15 1.75 1.58 1.49 1.22 0.87
0.66 0.69 0.76 0.82 0.85 0.87 0.96 1.08 1.26 1.23 1.36 1.35 1.33 1.29 1.36 1.52 1.61 1.50 1.21 1.22 1.21 0.88
0.60 0.60 0.56 0.51 0.55 0.59 0.62 0.63 0.61 0.59 0.56 0.68 0.79 0.77 0.74 0.87 1.24 1.48 1.18 1.10 1.42 1.31
0.82 1.14 1.17 0.89 0.88 0.85 0.74 0.68 0.62 0.57 0.56 0.43 0.42 0.49 0.44 0.47 0.80 1.28 1.52 1.38 1.53 1.69
1.76 1.49 1.59 1.50 1.40 1.34 0.96 0.82 0.76 0.68 0.66 0.60 0.60 0.55 0.45 0.39 0.62 0.95 1.42 1.51 1.46 1.54
1.82 2.12 1.66 1.58 1.66 1.42 1.13 0.94 0.90 0.82 0.79 0.64 0.63 0.57 0.51 0.46 0.52 0.87 1.17 1.39 1.65 1.60
1.33 1.67 1.90 1.41 1.31 1.29 1.28 1.13 0.95 0.85 0.94 1.10 1.02 0.80 0.71 0.68 0.88 0.90 1.06 1.32 1.57 1.74
1.37 1.47 1.87 1.57 1.51 1.43 1.44 1.76 1.47 1.30 1.03 0.96 0.99 1.06 1.14 1.11 0.91 0.93 1.03 1.05 1.15 1.41
1.31 1.38 1.38 1.75 1.74 1.86 1.45 1.62 1.83 1.69 1.46 1.39 1.21 1.70 1.54 1.30 1.14 1.04 0.88 0.80 0.64 0.87
1.81 1.84 1.65 1.45 1.63 1.88 2.11 1.92 1.78 2.14 2.13 1.96 2.01 2.17 2.12 1.95 1.51 1.44 1.48 1.35 1.20 0.93
2.00 1.99 1.92 2.00 1.74 1.68 2.07 2.15 2.21 1.96 2.33 2.18 2.09 2.70 2.38 2.07 1.79 1.87 1.94 2.19 2.03 1.82
2.33 2.08 1.73 1.82 2.29 2.02 1.88 1.94 1.94 2.00 1.66 1.80 2.40 2.60 2.44 2.50 1.76 1.78 1.82 1.99 2.25 2.33
2.10 2.33 2.69 2.38 2.27 2.62 2.31 2.08 1.86 1.74 1.81 2.00 1.93 2.52 2.35 2.44 2.59 2.63 2.76 2.31 2.36 3.09
1.57 1.78 2.14 2.41 2.52 2.34 2.37 2.13 1.99 1.95 1.95 1.94 2.14 2.40 2.50 2.14 1.92 2.39 2.77 2.94 2.87 3.11